Regional Weather Roundup
Issued by NWS Wakefield, VA

Home | Current Version | Previous Version | Text Only | Print | Product List | Glossary Off
Versions: 1 2 3 4 5 6 7 8 9 10 11 12 13 14 15 16 17 18 19 20 21 22 23 24 25 26 27 28

000
ASUS41 KAKQ 241510
RWRAKQ

REGIONAL WEATHER ROUNDUP
NATIONAL WEATHER SERVICE WAKEFIELD VA
1100 AM EDT FRI OCT 24 2014

Note: "fair" indicates few or no clouds below 12,000 feet with no
significant weather and/or obstructions to visibility. * = Denotes
station may not report precipitation (e.g., rain,snow,etc.),
thunder or fog.

VAZ042-051-052>054-056-241600-
NORTHERN VIRGINIA

CITY           SKY/WX    TMP DP  RH WIND       PRES   REMARKS
WASH NATIONAL  PTSUNNY   63  42  46 NW14G25   29.99S
DULLES         PTSUNNY   58  42  55 NW16G24   30.01S
FORT BELVOIR   MOSUNNY   60  43  52 NW20G25   30.00S
QUANTICO       PTSUNNY   60  42  51 N9G23     30.01F
FREDERICKSBRG* PTSUNNY   61  44  52 NW8G16    29.99F
STAFFORD*      PTSUNNY   60  43  53 NW9       30.03F
WARRENTON      MOSUNNY   62  49  60 N5        29.99F
CULPEPER*      PTSUNNY   63  43  48 N6        30.01F
MANASSAS*      NOT AVBL
LEESBURG*      MOSUNNY   61  46  59 NW15      30.02S
WINCHESTER     PTSUNNY   59  36  41 W16       30.02F
FRONT ROYAL*   PTSUNNY   59  41  51 NW9       30.01F
LURAY*         PTSUNNY   57  43  58 SW5       30.04F
$$

VAZ048-049-060>072-079>083-241600-
CENTRAL AND SOUTH CENTRAL VIRGINIA...AND NORTH CENTRAL NORTH CAROLINA

CITY           SKY/WX    TMP DP  RH WIND       PRES   REMARKS
RICHMOND       PTSUNNY   61  43  51 W6        30.01S
CHESTERFIELD*    N/A    N/A N/A N/A MISG        N/A
PETERSBURG*    PTSUNNY   61  41  48 NW9       30.03R
HANOVER        PTSUNNY   59  44  57 NW6       30.03S
TAPPAHANNOCK*  PTSUNNY   61  40  45 NW9G16    29.99F
CHARLOTTSVILLE PTSUNNY  N/A N/A N/A NW6       30.01F
ORANGE*        PTSUNNY   59  45  58 CALM      30.02S
LOUISA*        CLOUDY    57  45  62 W5        30.00S
FARMVILLE*     CLOUDY    61  45  55 W6        30.01R
CREWE*         MOSUNNY   60  41  49 NW6       30.02S
FORT PICKETT*  MOSUNNY   61  43  51 NW5       30.03R
LUNENBURG*     MOSUNNY   59  47  62 W3        30.04R
SOUTH HILL*    MOSUNNY   63  45  51 CALM      30.09R
LAWRENCEVILLE* MOSUNNY   61  45  55 NW6       30.03R
ROANOKE RAPIDS MOSUNNY   61  45  55 CALM      30.04S
RALEIGH        PTSUNNY   60  43  53 NE6       30.07S
$$

VAZ088>098-241600-
SOUTHEAST VIRGINIA

CITY           SKY/WX    TMP DP  RH WIND       PRES   REMARKS
NORFOLK        MOSUNNY   60  44  55 N8G22     29.98S
VIRGINIA BEACH PTSUNNY   63  46  54 NW23      29.96S
NORFOLK NAVAL  PTSUNNY   65  46  50 NW17      30.00S
WEST POINT*    MOSUNNY   62  43  50 NW7G18    30.01S
NEWPORT NEWS   MOSUNNY   63  45  51 NW14G21   29.99F
LANGLEY AFB    MOSUNNY   59  45  60 NW14      29.99S
FORT EUSTIS    MOSUNNY   60  42  51 NW10G23   29.98F
WILLIAMSBURG*  MOSUNNY   63  46  55 NW15G22   30.01R
HR EXEC AP*    MOSUNNY   61  48  63 N12G22    30.01S
FRANKLIN*      MOSUNNY   61  45  55 NW8       30.01S
WAKEFIELD      PTSUNNY   60  45  57 NW6       30.02S
$$

VAZ020-022-025-037-045-241600-
WEST CENTRAL AND SOUTHWEST VIRGINIA

CITY           SKY/WX    TMP DP  RH WIND       PRES   REMARKS
STAUNTON*      PTSUNNY   53  43  70 CALM      30.07S
HOT SPRINGS VA PTSUNNY   45  38  76 W12G18    30.06R
LYNCHBURG      PTSUNNY   58  41  53 CALM      30.06R
DANVILLE       MOSUNNY   62  42  47 NW5       30.06S
SOUTH BOSTON*  NOT AVBL
MARTINSVILLE   PTSUNNY   62  41  46 NW8       30.09F
ROANOKE        PTSUNNY   56  42  59 W7        30.09F
BLACKSBURG     PTSUNNY   54  46  76 SW5       30.12S
DUBLIN*        PTSUNNY   52  44  74 W3        30.12F
MARION*        CLOUDY    49  43  79 W8        30.15S
HILLSVILLE*    PTSUNNY   49  41  72 N8        30.11S
RICHLANDS*     CLOUDY    50  44  81 CALM      30.13F
WISE*          CLOUDY    46  43  87 NE3       30.14S
ABINGDON*      PTSUNNY   51  44  77 E3        30.13S
$$

MDZ021>025-VAZ099-100-241600-
SOUTHERN MARYLAND AND THE DELMARVA PENINSULA

CITY           SKY/WX    TMP DP  RH WIND       PRES   REMARKS
PATUXENT RIVER PTSUNNY   60  44  55 NW18G24   29.95F
BAY BRIDGE APT   N/A     61  43  51 NW14G22   29.94S
LEONARDTOWN    MOSUNNY   59  43  55 NW9       29.97F
DOVER          MOSUNNY   61  47  59 NW18G25   29.87S
GEORGETOWN     PTSUNNY   61  45  55 NW9G21    29.91S
EASTON         MOSUNNY   63  48  59 NW16G23   29.97S
CAMBRIDGE      MOSUNNY   61  45  55 NW15G26   29.93S
SALISBURY      MOSUNNY   63  46  54 NW14G25   29.91S
OCEAN CITY     SUNNY     62  47  57 NW14G25   29.90S
WALLOPS ISLAND PTSUNNY   61  47  59 N14       29.92F
ACCOMACK*      MOSUNNY   61  45  55 NW16G26   29.95R
$$

NCZ012>017-030>032-241600-
EASTERN NORTH CAROLINA

CITY           SKY/WX    TMP DP  RH WIND       PRES   REMARKS
ELIZABETH CITY MOSUNNY   63  46  54 NW13      29.98F
AHOSKIE*       MOSUNNY   58  46  63 CALM      30.03S
EDENTON*         N/A     61  45  56 NW13G18   30.01
CURRITUCK*     MOSUNNY   59  44  58 NW5       29.99S
KILL DEVIL HLS MOSUNNY   59  47  63 NW9G16    29.97S
MANTEO         MOSUNNY   58  47  67 NW9       29.99S
CAPE HATTERAS  CLOUDY    59  50  72 NW9       30.00R
TARBORO*       PTSUNNY   58  47  66 NW5       30.06R
GOLDSBORO      PTSUNNY   59  51  72 NW5       30.04F
WASHINGTON     PTSUNNY   58  47  66 CALM      30.04S
GREENVILLE     PTSUNNY   61  45  55 N3        30.06S
NEW BERN       MOSUNNY   62  48  60 N3        30.05S
WILMINGTON     MOSUNNY   61  46  57 NE7       30.05S
$$

VAZ048-241600-
ELSEWHERE

CITY           SKY/WX    TMP DP  RH WIND       PRES   REMARKS
HARRISBURG PA  SUNNY     61  40  45 NW14      29.94F
BALTIMORE      NOT AVBL
ANNAPOLIS      MOSUNNY   61  43  51 NW13G22   29.94S
ANDREWS AFB    MOSUNNY   60  44  56 NW15      29.97S
WILMINGTON DE  SUNNY     63  45  51 N17G28    29.90F
PHILADELPHIA   MOSUNNY   62  44  51 NW12      29.88F
WILDWOOD NJ*   CLOUDY    59  46  63 NW9G16    29.89S
ATLANTIC CITY  CLOUDY    57  45  64 NW17G30   29.86S
HENDERSON NC   MOSUNNY   60  42  52 NW5       30.06R
GREENSBORO     PTSUNNY   60  41  49 NE5       30.06F
ROCKY MOUNT    PTSUNNY   60  45  57 NW7       30.05S
FAYETTEVILLE   MOSUNNY   60  44  55 N7        30.06F
CHARLOTTE      PTSUNNY   61  41  47 N8        30.09F
$$

VAZ100-241600-
MARINE

STATION/POSITION TIME  TEMP    WIND        PRES    WAVE   SWELL
                       AIR SEA DIR/SP/G            HT/PER HT/PER
                 (UTC) (F)     (DEG/KT/KT) (MB)    (FT/S) (FT/S)
44066 TX TWR #4  1500   56 66  320/ 17/ 21 1007.8S   7/ 6   2/10
CAPE MAY NJ      1500   59 64  310/ 17/ 21 1011.3F
LEWES DE         1500   59 58  310/ 17/ 20 1012.1S
15NM E FENWICK I 1500   59 64  300/ 19/ 23 1011.3F   5/10   3/10
OCEAN-CITY-INLET 1500   59 62  340/ 11/ 15 1012.0R
WACHAPREAGUE VA  1500   60 59  300/  5/  9 1013.9S
THOMAS POINT MD  1500   59 62  310/ 13/ 15 1014.8S
GOOSES REEF MD   1500   60     330/ 16/ 21 1014.6S
COVE POINT MD    1500   59     330/ 16/ 24 1014.1S
SOLOMONS ISLAND  1500      63                N/A
BISHOPS HEAD MD  1500   58 55  310/ 19/ 24 1013.5S
PINEY POINT MD   1500          330/ 20/ 22   N/A
POTOMAC MD       1500   59     320/ 17/ 21 1013.7F
CAMBRIDGE MD     1500   58 60  310/ 14/ 21 1013.5S
LEWISETTA VA     1500   58 59  320/ 15/ 20 1014.5F
RAPPAHANNOCK LGT 1500          310/ 20/ 24 1014.7F
STINGRAY PT      1500   59     330/ 14/ 17 1015.1F
YORK RVR RNG VA  1500   58     340/ 17/ 21 1014.6R
YORKTOWN VA      1500   58 64  310/ 19/ 22 1015.0S
JAMESTOWN VA     1500   58     330/ 12/ 16   N/A
DOMINION TERM VA 1500   59     330/ 13/ 17 1015.5R
KIPTOPEKE VA     1500      64  330/ 17/ 21   N/A
CHES BAY BRIDGE  1500   58 65  300/ 19/ 25 1014.7R
CHESAPEAKE LGHT  1400   59     330/ 22/ 24 1014.6F
WILLOUBY STN VA  1500   59     330/ 15/ 18 1014.1R
S CRANEY ISL VA  1500          310/ 12/ 17 1015.0F
CAPE HENRY BUOY  1500      67                N/A     5/ 5
1ST LANDING BUOY 1500   60     310/ 19/ 23 1014.6R
CAPE CHARLES BUO 1500      66                N/A     4/ 5   2/ 8
64NM E OF VA BCH 1500   61 67  330/ 19/ 23 1012.8S   7/ 8   2/10
DUCK PIER NC     1500   56 66  300/ 13/ 15 1014.5R
44100 DUCK FRF   1500      68                N/A     5/ 6
44056 DUCK FRF   1500                        N/A     4/ 7
OREGON INLET NC  1500   58 63  310/ 15/ 19 1015.0F
HATTERAS NC      1500   59 63  320/ 18/ 20 1016.4R
DIAMOND SHLS NC  1500   62     310/ 14/ 17 1016.0R   4/ 9   2/ 9
CAPE LOOKOUT NC  1400   59     360/  9/ 12 1016.3F
$$



USA.gov is the U.S. government's official web portal to all federal, state and local government web resources and services.